• In Kazakhstan
  • List of Countries
  • For 7 days
  • Water Temperature
  • Weather Map
  • News
  • Weather Widgets
  • user-avatar
    Login

    Hourly Weather Ischgl

    Today, 29 February, Saturday

    Time Temperature Precipitation Wind Pressure Humidity
    00:00 -14°C° 0 mm 3 mps 567 mmHg 50%
    01:00 -14°C° 0 mm 3 mps 567 mmHg 52%
    02:00 -14°C° 0 mm 4 mps 567 mmHg 56%
    03:00 -14°C° 0 mm 4 mps 567 mmHg 60%
    04:00 -14°C° 0 mm 4 mps 566 mmHg 65%
    05:00 -12°C° 0 mm 3 mps 566 mmHg 67%
    06:00 -12°C° 0 mm 3 mps 566 mmHg 68%
    07:00 -10°C° 0 mm 3 mps 566 mmHg 70%
    08:00 -9°C° 0 mm 3 mps 566 mmHg 71%
    09:00 -9°C° 0 mm 4 mps 566 mmHg 72%
    10:00 -8°C° 0 mm 4 mps 566 mmHg 73%
    11:00 -8°C° 0 mm 4 mps 566 mmHg 76%
    12:00 -7°C° 0 mm 4 mps 566 mmHg 79%
    13:00 -7°C° 0 mm 4 mps 565 mmHg 82%
    14:00 -7°C° 0 mm 4 mps 565 mmHg 82%
    15:00 -7°C° 0 mm 4 mps 565 mmHg 82%
    16:00 -8°C° 0 mm 4 mps 564 mmHg 83%
    17:00 -9°C° 0 mm 4 mps 563 mmHg 84%
    18:00 -11°C° 0 mm 4 mps 563 mmHg 85%
    19:00 -12°C° 0 mm 4 mps 562 mmHg 86%
    20:00 -14°C° 0 mm 4 mps 562 mmHg 86%
    21:00 -14°C° 0 mm 4 mps 562 mmHg 87%
    22:00 -13°C° 0 mm 3 mps 562 mmHg 87%
    23:00 -12°C° 0 mm 3 mps 562 mmHg 87%

    Tomorrow, 1 March, Sunday

    Time Temperature Precipitation Wind Pressure Humidity
    00:00 -12°C° 0 mm 3 mps 562 mmHg 88%
    01:00 -12°C° 0 mm 3 mps 562 mmHg 88%
    02:00 -12°C° 0 mm 3 mps 562 mmHg 88%
    03:00 -12°C° 0 mm 3 mps 562 mmHg 88%
    04:00 -10°C° 0 mm 2 mps 562 mmHg 88%
    05:00 -10°C° 0.1 mm 2 mps 562 mmHg 90%
    06:00 -10°C° 0.1 mm 2 mps 562 mmHg 92%
    07:00 -10°C° 0.1 mm 2 mps 562 mmHg 94%
    08:00 -7°C° 0.7 mm 1 mps 562 mmHg 94%
    09:00 -6°C° 0.7 mm 1 mps 562 mmHg 94%
    10:00 -4°C° 0.7 mm 1 mps 563 mmHg 94%
    11:00 -4°C° 0.7 mm 1 mps 563 mmHg 96%
    12:00 -3°C° 0.7 mm 1 mps 563 mmHg 97%
    13:00 -3°C° 0.7 mm 1 mps 563 mmHg 98%
    14:00 -3°C° 0.2 mm 1 mps 562 mmHg 97%
    15:00 -3°C° 0.2 mm 1 mps 562 mmHg 96%
    16:00 -3°C° 0.2 mm 1 mps 561 mmHg 95%
    17:00 -4°C° 0.2 mm 1 mps 561 mmHg 96%
    18:00 -6°C° 0.2 mm 1 mps 560 mmHg 96%
    19:00 -7°C° 0.2 mm 1 mps 560 mmHg 97%
    20:00 -7°C° 0.2 mm 1 mps 559 mmHg 96%
    21:00 -7°C° 0.2 mm 1 mps 559 mmHg 95%
    22:00 -8°C° 0.2 mm 1 mps 559 mmHg 93%
    23:00 -9°C° 0.1 mm 2 mps 558 mmHg 92%

    Day after tomorrow, 2 March, Monday

    Time Temperature Precipitation Wind Pressure Humidity
    00:00 -10°C° 0.1 mm 2 mps 558 mmHg 91%
    01:00 -12°C° 0.1 mm 2 mps 558 mmHg 90%
    02:00 -12°C° 0.2 mm 2 mps 557 mmHg 89%
    03:00 -13°C° 0.2 mm 2 mps 557 mmHg 87%
    04:00 -13°C° 0.2 mm 2 mps 556 mmHg 86%
    05:00 -13°C° 0 mm 2 mps 556 mmHg 81%
    06:00 -14°C° 0 mm 3 mps 556 mmHg 77%
    07:00 -14°C° 0 mm 3 mps 556 mmHg 72%
    08:00 -12°C° 0 mm 3 mps 556 mmHg 75%
    09:00 -10°C° 0 mm 4 mps 557 mmHg 78%
    10:00 -8°C° 0 mm 4 mps 558 mmHg 80%
    11:00 -8°C° 0 mm 4 mps 558 mmHg 81%
    12:00 -6°C° 0 mm 3 mps 558 mmHg 82%
    13:00 -5°C° 0 mm 3 mps 557 mmHg 82%
    14:00 -6°C° 0.3 mm 3 mps 557 mmHg 86%
    15:00 -5°C° 0.3 mm 2 mps 556 mmHg 89%
    16:00 -5°C° 0.3 mm 2 mps 555 mmHg 92%
    17:00 -6°C° 1.4 mm 2 mps 555 mmHg 94%
    18:00 -6°C° 1.4 mm 2 mps 555 mmHg 95%
    19:00 -7°C° 1.4 mm 2 mps 555 mmHg 97%
    20:00 -8°C° 1.6 mm 2 mps 555 mmHg 97%
    21:00 -8°C° 1.6 mm 2 mps 554 mmHg 96%
    22:00 -10°C° 1.6 mm 3 mps 554 mmHg 96%
    23:00 -10°C° 1 mm 3 mps 554 mmHg 96%

    3 March, Tuesday

    Time Temperature Precipitation Wind Pressure Humidity
    00:00 -12°C° 1 mm 3 mps 554 mmHg 96%
    01:00 -12°C° 1 mm 3 mps 554 mmHg 95%
    02:00 -13°C° 0.6 mm 3 mps 554 mmHg 95%
    03:00 -13°C° 0.6 mm 3 mps 555 mmHg 95%
    04:00 -14°C° 0.6 mm 3 mps 555 mmHg 95%
    05:00 -14°C° 0.3 mm 3 mps 555 mmHg 95%
    06:00 -15°C° 0.3 mm 3 mps 555 mmHg 95%
    07:00 -15°C° 0.3 mm 3 mps 555 mmHg 95%
    08:00 -15°C° 0.1 mm 3 mps 556 mmHg 92%
    09:00 -14°C° 0.1 mm 3 mps 557 mmHg 90%
    10:00 -13°C° 0.1 mm 3 mps 557 mmHg 88%
    11:00 -13°C° 0.1 mm 3 mps 558 mmHg 86%
    12:00 -12°C° 0.1 mm 3 mps 558 mmHg 84%
    13:00 -10°C° 0.1 mm 3 mps 559 mmHg 83%
    14:00 -10°C° 0.3 mm 3 mps 559 mmHg 83%
    15:00 -12°C° 0.3 mm 3 mps 559 mmHg 84%
    16:00 -12°C° 0.3 mm 3 mps 559 mmHg 85%
    17:00 -13°C° 0.1 mm 3 mps 559 mmHg 88%
    18:00 -13°C° 0.1 mm 2 mps 559 mmHg 92%
    19:00 -14°C° 0.1 mm 2 mps 559 mmHg 95%
    20:00 -16°C° 0 mm 2 mps 559 mmHg 93%
    21:00 -15°C° 0 mm 1 mps 559 mmHg 92%
    22:00 -16°C° 0 mm 1 mps 558 mmHg 90%
    23:00 -16°C° 0 mm 1 mps 558 mmHg 88%

    4 March, Wednesday

    Time Temperature Precipitation Wind Pressure Humidity
    00:00 -16°C° 0 mm 1 mps 558 mmHg 85%
    01:00 -16°C° 0 mm 1 mps 558 mmHg 83%
    02:00 -16°C° 0 mm 1 mps 559 mmHg 84%
    03:00 -16°C° 0 mm 1 mps 559 mmHg 86%
    04:00 -16°C° 0 mm 1 mps 559 mmHg 87%
    05:00 -16°C° 0 mm 1 mps 559 mmHg 87%
    06:00 -16°C° 0 mm 1 mps 559 mmHg 87%
    07:00 -17°C° 0 mm 1 mps 558 mmHg 87%
    08:00 -14°C° 0 mm 1 mps 560 mmHg 81%
    09:00 -12°C° 0 mm 1 mps 561 mmHg 74%
    10:00 -9°C° 0 mm 1 mps 562 mmHg 68%
    11:00 -8°C° 0 mm 1 mps 563 mmHg 67%
    12:00 -8°C° 0 mm 1 mps 563 mmHg 66%
    13:00 -7°C° 0 mm 1 mps 563 mmHg 66%
    14:00 -7°C° 0 mm 1 mps 563 mmHg 70%
    15:00 -7°C° 0 mm 1 mps 563 mmHg 74%
    16:00 -8°C° 0 mm 2 mps 563 mmHg 79%
    17:00 -9°C° 0 mm 1 mps 562 mmHg 84%
    18:00 -11°C° 0 mm 1 mps 561 mmHg 90%
    19:00 -13°C° 0 mm 1 mps 561 mmHg 96%
    20:00 -14°C° 0 mm 1 mps 561 mmHg 95%
    21:00 -14°C° 0 mm 1 mps 561 mmHg 93%
    22:00 -15°C° 0 mm 1 mps 561 mmHg 92%
    23:00 -15°C° 0 mm 1 mps 561 mmHg 89%

    5 March, Thursday

    Time Temperature Precipitation Wind Pressure Humidity
    00:00 -15°C° 0 mm 1 mps 561 mmHg 86%
    01:00 -15°C° 0 mm 1 mps 560 mmHg 84%
    02:00 -15°C° 0 mm 1 mps 560 mmHg 80%
    03:00 -15°C° 0 mm 1 mps 560 mmHg 76%
    04:00 -15°C° 0 mm 1 mps 560 mmHg 72%
    05:00 -15°C° 0 mm 1 mps 560 mmHg 69%
    06:00 -16°C° 0 mm 2 mps 561 mmHg 66%
    07:00 -16°C° 0 mm 2 mps 561 mmHg 64%
    08:00 -13°C° 0 mm 2 mps 562 mmHg 64%
    09:00 -10°C° 0 mm 2 mps 563 mmHg 64%
    10:00 -7°C° 0 mm 2 mps 564 mmHg 64%
    11:00 -7°C° 0 mm 2 mps 564 mmHg 68%
    12:00 -6°C° 0 mm 2 mps 564 mmHg 71%
    13:00 -5°C° 0 mm 2 mps 564 mmHg 75%
    14:00 -5°C° 0 mm 2 mps 564 mmHg 78%
    15:00 -5°C° 0 mm 2 mps 563 mmHg 80%
    16:00 -5°C° 0 mm 2 mps 563 mmHg 83%
    17:00 -7°C° 0.2 mm 3 mps 562 mmHg 86%
    18:00 -8°C° 0.2 mm 3 mps 562 mmHg 89%
    19:00 -9°C° 0.2 mm 3 mps 562 mmHg 93%
    20:00 -9°C° 0.2 mm 2 mps 561 mmHg 92%
    21:00 -10°C° 0.2 mm 2 mps 561 mmHg 92%
    22:00 -12°C° 0.2 mm 2 mps 561 mmHg 92%
    23:00 -12°C° 0.1 mm 2 mps 560 mmHg 91%
    Show more